| time (UTC) | temp C | wind direction | speed KPH | gust KPH | rain 1hr cm | rain 24hr cm | rain mn cm | humidity % | barometer mb |
| 20260504150953 | 27 | 45 | 11.3 | 11.3 | 0.00 | 0.00 | 0.00 | 79 | 1014.9 |
| 20260504150453 | 27 | 68 | 8.0 | 11.3 | 0.00 | 0.00 | 0.00 | 79 | 1014.9 |
| 20260504140953 | 25 | 45 | 1.6 | 3.2 | 0.00 | 0.00 | 0.00 | 89 | 1015.2 |
| 20260504140456 | 26 | 68 | 1.6 | 3.2 | 0.00 | 0.00 | 0.00 | 88 | 1014.9 |
| 20260504130453 | 26 | 45 | 3.2 | 3.2 | 0.00 | 0.00 | 0.00 | 85 | 1014.6 |
| 20260504110453 | 27 | 68 | 6.4 | 9.7 | 0.00 | 0.00 | 0.00 | 85 | 1013.9 |
| 20260504100453 | 28 | 68 | 12.9 | 16.1 | 0.00 | 0.00 | 0.00 | 82 | 1012.9 |
| 20260504081953 | 30 | 45 | 19.3 | 30.6 | 0.00 | 0.00 | 0.00 | 73 | 1012.2 |
| 20260504081453 | 30 | 113 | 14.5 | 19.3 | 0.00 | 0.00 | 0.00 | 74 | 1012.5 |
| 20260504080953 | 30 | 68 | 11.3 | 16.1 | 0.00 | 0.00 | 0.00 | 74 | 1012.2 |
| 20260504080454 | 30 | 45 | 19.3 | 24.1 | 0.00 | 0.00 | 0.00 | 75 | 1012.2 |
| 20260504050454 | 33 | 45 | 4.8 | 6.4 | 0.00 | 0.00 | 0.00 | 59 | 1013.9 |
| 20260504045953 | 33 | 68 | 6.4 | 8.0 | 0.00 | 0.00 | 0.00 | 61 | 1013.9 |
| 20260504045453 | 33 | 68 | 8.0 | 12.9 | 0.00 | 0.00 | 0.00 | 61 | 1013.9 |
| 20260504044953 | 33 | 90 | 8.0 | 11.3 | 0.00 | 0.00 | 0.00 | 57 | 1013.9 |
| 20260504044453 | 33 | 68 | 14.5 | 24.1 | 0.00 | 0.00 | 0.00 | 61 | 1014.2 |
| 20260504043953 | 33 | 45 | 14.5 | 17.7 | 0.00 | 0.00 | 0.00 | 61 | 1014.2 |
| 20260504043453 | 33 | 68 | 11.3 | 14.5 | 0.00 | 0.00 | 0.00 | 59 | 1014.2 |
| 20260504042954 | 33 | 90 | 9.7 | 11.3 | 0.00 | 0.00 | 0.00 | 59 | 1014.2 |
| 20260504042454 | 32 | 113 | 11.3 | 12.9 | 0.00 | 0.00 | 0.00 | 60 | 1014.6 |
| 20260504041953 | 33 | 45 | 14.5 | 19.3 | 0.00 | 0.00 | 0.00 | 60 | 1014.6 |
| 20260504041453 | 33 | 90 | 11.3 | 16.1 | 0.00 | 0.00 | 0.00 | 61 | 1014.6 |
| 20260504040955 | 32 | 68 | 16.1 | 24.1 | 0.00 | 0.00 | 0.00 | 63 | 1014.6 |
| 20260504040453 | 33 | 68 | 12.9 | 16.1 | 0.00 | 0.00 | 0.00 | 61 | 1014.6 |
| 20260504035953 | 33 | 113 | 4.8 | 6.4 | 0.00 | 0.00 | 0.00 | 63 | 1014.9 |
| 20260504035454 | 32 | 45 | 12.9 | 16.1 | 0.00 | 0.00 | 0.00 | 62 | 1014.9 |
| 20260504034954 | 33 | 90 | 9.7 | 11.3 | 0.00 | 0.00 | 0.00 | 65 | 1015.2 |
| 20260504034453 | 32 | 90 | 9.7 | 16.1 | 0.00 | 0.00 | 0.00 | 68 | 1015.2 |
| 20260504033953 | 33 | 90 | 12.9 | 16.1 | 0.00 | 0.00 | 0.00 | 66 | 1014.9 |
| 20260504033456 | 32 | 68 | 8.0 | 9.7 | 0.00 | 0.00 | 0.00 | 68 | 1015.2 |
| 20260504032953 | 32 | 90 | 11.3 | 16.1 | 0.00 | 0.00 | 0.00 | 67 | 1015.2 |
| 20260504032453 | 32 | 45 | 4.8 | 8.0 | 0.00 | 0.00 | 0.00 | 69 | 1015.2 |
| 20260504031953 | 32 | 68 | 3.2 | 4.8 | 0.00 | 0.00 | 0.00 | 69 | 1015.2 |
| 20260504031453 | 31 | 90 | 12.9 | 16.1 | 0.00 | 0.00 | 0.00 | 69 | 1015.2 |
| 20260504030953 | 32 | 68 | 11.3 | 12.9 | 0.00 | 0.00 | 0.00 | 67 | 1015.2 |
| 20260504030453 | 32 | 90 | 17.7 | 20.9 | 0.00 | 0.00 | 0.00 | 65 | 1015.2 |
| 20260504025953 | 33 | 45 | 9.7 | 12.9 | 0.00 | 0.00 | 0.00 | 66 | 1015.2 |
| 20260504025453 | 31 | 45 | 11.3 | 16.1 | 0.00 | 0.00 | 0.00 | 70 | 1015.6 |
| 20260504024953 | 32 | 68 | 14.5 | 20.9 | 0.00 | 0.00 | 0.00 | 66 | 1015.6 |
| 20260504024454 | 32 | 68 | 11.3 | 17.7 | 0.00 | 0.00 | 0.00 | 67 | 1015.6 |
| 20260504023954 | 33 | 113 | 1.6 | 3.2 | 0.00 | 0.00 | 0.00 | 66 | 1015.6 |
| 20260504023453 | 32 | 68 | 4.8 | 6.4 | 0.00 | 0.00 | 0.00 | 70 | 1015.6 |
| 20260504022953 | 32 | 68 | 11.3 | 11.3 | 0.00 | 0.00 | 0.00 | 68 | 1015.2 |
| 20260504022453 | 32 | 90 | 9.7 | 11.3 | 0.00 | 0.00 | 0.00 | 68 | 1015.6 |
| 20260504021953 | 32 | 68 | 11.3 | 16.1 | 0.00 | 0.00 | 0.00 | 67 | 1015.6 |
| 20260504021453 | 32 | 45 | 11.3 | 11.3 | 0.00 | 0.00 | 0.00 | 70 | 1015.6 |
| 20260504020954 | 32 | 68 | 9.7 | 12.9 | 0.00 | 0.00 | 0.00 | 68 | 1015.6 |
| 20260504020454 | 33 | 135 | 4.8 | 8.0 | 0.00 | 0.00 | 0.00 | 68 | 1015.6 |
| 20260504015953 | 32 | 68 | 4.8 | 8.0 | 0.00 | 0.00 | 0.00 | 67 | 1015.6 |
| 20260504015454 | 32 | 90 | 4.8 | 8.0 | 0.00 | 0.00 | 0.00 | 72 | 1015.6 |
| 20260504014954 | 32 | 45 | 11.3 | 12.9 | 0.00 | 0.00 | 0.00 | 70 | 1015.9 |
| 20260504014453 | 32 | 90 | 12.9 | 16.1 | 0.00 | 0.00 | 0.00 | 70 | 1015.9 |
| 20260504013953 | 32 | 68 | 8.0 | 12.9 | 0.00 | 0.00 | 0.00 | 71 | 1015.9 |
| 20260504013453 | 31 | 158 | 8.0 | 12.9 | 0.00 | 0.00 | 0.00 | 72 | 1015.9 |
| 20260504012953 | 31 | 68 | 9.7 | 12.9 | 0.00 | 0.00 | 0.00 | 73 | 1015.9 |
| 20260504012453 | 31 | 68 | 9.7 | 12.9 | 0.00 | 0.00 | 0.00 | 73 | 1015.9 |
| 20260504011953 | 31 | 68 | 4.8 | 8.0 | 0.00 | 0.00 | 0.00 | 73 | 1015.9 |
| 20260504011453 | 31 | 68 | 9.7 | 11.3 | 0.00 | 0.00 | 0.00 | 74 | 1015.6 |
| 20260504010953 | 31 | 45 | 4.8 | 8.0 | 0.00 | 0.00 | 0.00 | 73 | 1015.6 |
| 20260504010453 | 31 | 68 | 12.9 | 16.1 | 0.00 | 0.00 | 0.00 | 74 | 1015.6 |
| 20260504005953 | 31 | 113 | 6.4 | 12.9 | 0.00 | 0.00 | 0.00 | 73 | 1015.6 |
| 20260504005453 | 31 | 90 | 3.2 | 3.2 | 0.00 | 0.00 | 0.00 | 73 | 1015.6 |
| 20260504004953 | 31 | 90 | 11.3 | 14.5 | 0.00 | 0.00 | 0.00 | 72 | 1015.6 |
| 20260504004454 | 30 | 23 | 9.7 | 11.3 | 0.00 | 0.00 | 0.00 | 74 | 1015.6 |
| 20260504003954 | 30 | 113 | 6.4 | 8.0 | 0.00 | 0.00 | 0.00 | 75 | 1015.6 |
| 20260504003454 | 30 | 45 | 9.7 | 14.5 | 0.00 | 0.00 | 0.00 | 75 | 1015.6 |
| 20260504002953 | 31 | 68 | 3.2 | 3.2 | 0.00 | 0.00 | 0.00 | 74 | 1015.6 |
| 20260504002454 | 30 | 90 | 4.8 | 8.0 | 0.00 | 0.00 | 0.00 | 76 | 1015.6 |
| 20260504001955 | 29 | 135 | 0.0 | 1.6 | 0.00 | 0.00 | 0.00 | 77 | 1015.6 |
| 20260504001453 | 30 | 113 | 3.2 | 4.8 | 0.00 | 0.00 | 0.00 | 77 | 1015.6 |
| 20260504000953 | 29 | 90 | 3.2 | 6.4 | 0.00 | 0.00 | 0.00 | 77 | 1015.2 |
| 20260504000454 | 29 | 68 | 4.8 | 8.0 | 0.00 | 0.00 | 0.00 | 77 | 1015.2 |